Weather History for KADC - January, 2012

Change the Weather History Date:

Saturday, January 21, 2012

  Actual Average Record
Temperature  
Mean Temperature -2 °F -  
Max Temperature 10 °F 19 °F 47 °F (1942)
Min Temperature -13 °F -1 °F -36 °F (1954)
Degree Days  
Heating Degree Days 66    
Moisture  
Dew Point -5 °F    
Average Humidity 81    
Maximum Humidity 92    
Minimum Humidity 73    
Precipitation  
Precipitation 0.00 in - - ()
Sea Level Pressure  
Sea Level Pressure 29.97 in    
Wind  
Wind Speed 6 mph (SSE)    
Max Wind Speed 23 mph    
Max Gust Speed 32 mph    
Visibility 9 miles    
Events Snow    
Averages and records for this station are not official NWS values.
T = Trace of Precipitation, MM = Missing Value Source: NWS Daily Summary

Daily Weather History Graph

Daily Weather History Graph

Search for Another Location

Airport or City:

Trip Planner

Search our weather history database for the weather conditions in past years. The results will help you decide how hot, cold, wet, or windy it might be!

Date:

Astronomy

Jan. 21, 2012 Rise Set
Actual Time 7:56 AM CST 5:08 PM CST
Civil Twilight 7:22 AM CST 5:41 PM CST
Nautical Twilight 6:46 AM CST 6:18 PM CST
Astronomical Twilight 6:10 AM CST 6:54 PM CST
Moon 6:30 AM CST (1/21) 3:43 PM CST (1/21)
Length of Visible Light 10h 18m
Length of Day
9h 12m
Waning Crescent, 3% of the Moon is Illuminated
Jan 21
Waning Crescent
Jan 23
New
Jan 30
First Quarter
Feb 7
Full
Feb 14
Last Quarter

Hourly Weather History & Observations

Time (CST) Temp. Windchill Dew Point Humidity Pressure Visibility Wind Dir Wind Speed Gust Speed Precip Events Conditions
12:15 AM -11.2 °F - -16.6 °F 77% 30.15 in 10.0 mi Calm Calm - N/A   Clear
12:34 AM -11.2 °F - -16.6 °F 77% 30.15 in 10.0 mi Calm Calm - N/A   Clear
12:53 AM -11.2 °F - -14.8 °F 84% 30.15 in 10.0 mi Calm Calm - N/A   Clear
1:15 AM -13.0 °F - -18.4 °F 77% 30.14 in 10.0 mi Calm Calm - N/A   Clear
1:35 AM -13.0 °F - -18.4 °F 77% 30.14 in 10.0 mi Calm Calm - N/A   Clear
1:53 AM -13.0 °F - -16.6 °F 84% 30.14 in 10.0 mi Calm Calm - N/A   Clear
2:15 AM -11.2 °F - -16.6 °F 77% 30.13 in 10.0 mi Calm Calm - N/A   Clear
2:34 AM -13.0 °F - -16.6 °F 84% 30.13 in 10.0 mi Calm Calm - N/A   Clear
2:53 AM -11.2 °F - -16.6 °F 77% 30.12 in 10.0 mi Calm Calm - N/A   Clear
3:15 AM -11.2 °F - -16.6 °F 77% 30.11 in 10.0 mi Calm Calm - N/A   Clear
3:34 AM -11.2 °F - -14.8 °F 84% 30.11 in 10.0 mi Calm Calm - N/A   Clear
3:53 AM -11.2 °F -20.6 °F -14.8 °F 84% 30.11 in 10.0 mi SSW 3.5 mph - N/A   Clear
4:15 AM -11.2 °F - -14.8 °F 84% 30.10 in 10.0 mi Calm Calm - N/A   Clear
4:34 AM -9.4 °F - -14.8 °F 77% 30.10 in 10.0 mi Calm Calm - N/A   Clear
4:53 AM -11.2 °F - -14.8 °F 84% 30.08 in 10.0 mi Calm Calm - N/A   Clear
5:15 AM -9.4 °F - -14.8 °F 77% 30.07 in 10.0 mi Calm Calm - N/A   Clear
5:34 AM -11.2 °F -20.6 °F -14.8 °F 84% 30.06 in 10.0 mi ESE 3.5 mph - N/A   Scattered Clouds
5:53 AM -7.6 °F - -9.4 °F 92% 30.06 in 10.0 mi Calm Calm - N/A   Unknown
6:14 AM -7.6 °F - -9.4 °F 92% 30.05 in 10.0 mi Calm Calm - N/A   Overcast
6:35 AM -5.8 °F - -9.4 °F 84% 30.05 in 10.0 mi Calm Calm - N/A   Unknown
6:53 AM -5.8 °F -14.5 °F -9.4 °F 84% 30.06 in 10.0 mi SSE 3.5 mph - N/A   Unknown
7:15 AM -2.2 °F -10.4 °F -5.8 °F 85% 30.05 in 10.0 mi South 3.5 mph - N/A   Mostly Cloudy
7:34 AM -0.4 °F - -4.0 °F 85% 30.04 in 10.0 mi Calm Calm - N/A   Overcast
7:53 AM -0.4 °F -13.4 °F -2.2 °F 92% 30.03 in 10.0 mi SE 6.9 mph - N/A   Overcast
8:15 AM -0.4 °F -14.7 °F -4.0 °F 85% 30.03 in 10.0 mi SSE 8.1 mph - N/A   Overcast
8:34 AM -0.4 °F -14.7 °F -2.2 °F 92% 30.03 in 10.0 mi SE 8.1 mph - N/A   Overcast
8:53 AM 1.4 °F -11.3 °F -2.2 °F 85% 30.03 in 10.0 mi SSE 6.9 mph - N/A   Overcast
9:14 AM 1.4 °F -13.5 °F -2.2 °F 85% 30.03 in 10.0 mi SSE 9.2 mph - N/A   Mostly Cloudy
9:35 AM 3.2 °F -12.2 °F -0.4 °F 85% 30.02 in 10.0 mi SSE 10.4 mph - N/A   Mostly Cloudy
9:53 AM 1.4 °F -13.5 °F -0.4 °F 92% 30.01 in 10.0 mi SSE 9.2 mph - N/A   Scattered Clouds
10:14 AM 3.2 °F -14.6 °F 1.4 °F 92% 30.01 in 10.0 mi South 13.8 mph 17.3 mph N/A   Clear
10:35 AM 6.8 °F -11.8 °F 1.4 °F 79% 29.99 in 10.0 mi SSE 17.3 mph - N/A   Clear
10:53 AM 6.8 °F -10.0 °F 1.4 °F 79% 29.98 in 10.0 mi SSE 13.8 mph - N/A   Clear
11:15 AM 8.6 °F -8.9 °F 1.4 °F 73% 29.96 in 10.0 mi SSE 16.1 mph 19.6 mph N/A   Scattered Clouds
11:34 AM 8.6 °F -10.0 °F 1.4 °F 73% 29.95 in 10.0 mi South 18.4 mph 24.2 mph N/A   Scattered Clouds
11:53 AM 8.6 °F -11.0 °F 1.4 °F 73% 29.93 in 10.0 mi South 20.7 mph 26.5 mph N/A   Clear
12:15 PM 8.6 °F -9.5 °F 3.2 °F 79% 29.91 in 10.0 mi SSE 17.3 mph 24.2 mph N/A   Scattered Clouds
12:34 PM 8.6 °F -10.0 °F 1.4 °F 73% 29.89 in 10.0 mi SE 18.4 mph 26.5 mph N/A   Scattered Clouds
12:53 PM 8.6 °F -10.5 °F 3.2 °F 79% 29.88 in 10.0 mi SE 19.6 mph 25.3 mph N/A   Scattered Clouds
1:15 PM 8.6 °F -11.9 °F 3.2 °F 79% 29.85 in 7.0 mi SSE 23.0 mph 27.6 mph N/A   Mostly Cloudy
1:35 PM 8.6 °F -9.5 °F 3.2 °F 79% 29.86 in 7.0 mi SSE 17.3 mph 24.2 mph N/A   Mostly Cloudy
1:52 PM 8.6 °F -10.5 °F 3.2 °F 79% 29.83 in 10.0 mi SSE 19.6 mph 28.8 mph N/A   Mostly Cloudy
2:15 PM 8.6 °F -9.5 °F 3.2 °F 79% 29.83 in 10.0 mi SE 17.3 mph 23.0 mph N/A   Mostly Cloudy
2:35 PM 10.4 °F -7.7 °F 3.2 °F 73% 29.82 in 10.0 mi SSE 18.4 mph 25.3 mph N/A   Mostly Cloudy
2:53 PM 10.4 °F -8.6 °F 3.2 °F 73% 29.81 in 10.0 mi SSE 20.7 mph 32.2 mph N/A   Overcast
3:14 PM 10.4 °F -9.1 °F 3.2 °F 73% 29.79 in 10.0 mi SSE 21.9 mph 26.5 mph N/A   Overcast
3:35 PM 8.6 °F -10.5 °F 3.2 °F 79% 29.78 in 10.0 mi SE 19.6 mph 26.5 mph N/A Snow Light Snow
3:53 PM 10.4 °F -8.2 °F 3.2 °F 73% 29.77 in 10.0 mi SE 19.6 mph 28.8 mph N/A Snow Light Snow
4:14 PM 10.4 °F -7.7 °F 5.0 °F 79% 29.76 in 10.0 mi SE 18.4 mph 27.6 mph N/A   Overcast
4:35 PM 10.4 °F -8.2 °F 5.0 °F 79% 29.76 in 10.0 mi SE 19.6 mph 26.5 mph N/A Snow Light Snow
4:53 PM 8.6 °F -10.5 °F 3.2 °F 79% 29.75 in 7.0 mi SE 19.6 mph 24.2 mph N/A Snow Light Snow
5:15 PM 8.6 °F -11.4 °F 5.0 °F 85% 29.74 in 7.0 mi SE 21.9 mph 25.3 mph N/A Snow Light Snow
5:35 PM 10.4 °F -6.0 °F 5.0 °F 79% 29.72 in 5.0 mi SE 15.0 mph 27.6 mph N/A Snow Light Snow
5:53 PM 10.4 °F -8.6 °F 6.8 °F 85% 29.71 in 3.0 mi SE 20.7 mph 26.5 mph N/A Snow Light Snow
6:15 PM 10.4 °F -6.6 °F 6.8 °F 85% 29.70 in 3.0 mi SE 16.1 mph 27.6 mph N/A Snow Light Snow
6:34 PM 10.4 °F -7.2 °F 6.8 °F 85% 29.69 in 3.0 mi SSE 17.3 mph 25.3 mph N/A Snow Light Snow
6:53 PM 10.4 °F -8.6 °F 8.6 °F 92% 29.69 in 3.0 mi SSE 20.7 mph 28.8 mph N/A Snow Light Snow
7:34 PM 12.2 °F -4.3 °F 8.6 °F 85% 29.67 in 4.0 mi SSE 16.1 mph 21.9 mph N/A Snow Light Snow
7:53 PM 12.2 °F -6.7 °F 10.4 °F 92% 29.66 in 4.0 mi SSE 21.9 mph - N/A Snow Light Snow
8:15 PM 12.2 °F -4.3 °F 10.4 °F 92% 29.65 in 5.0 mi SSE 16.1 mph 21.9 mph N/A   Overcast
8:34 PM 14.0 °F -2.0 °F 10.4 °F 86% 29.65 in 7.0 mi SSE 16.1 mph - N/A   Overcast
8:53 PM 14.0 °F -0.2 °F 10.4 °F 86% 29.65 in 7.0 mi SSE 12.7 mph - N/A   Overcast
9:15 PM 15.8 °F 2.7 °F 12.2 °F 86% 29.64 in 5.0 mi SSE 11.5 mph - N/A   Overcast
9:34 PM 15.8 °F -0.2 °F 12.2 °F 86% 29.64 in 5.0 mi South 17.3 mph 29.9 mph N/A   Overcast
9:53 PM 15.8 °F -0.6 °F 12.2 °F 86% 29.64 in 4.0 mi South 18.4 mph - N/A Snow Light Snow
10:14 PM 15.8 °F -1.1 °F 12.2 °F 86% 29.64 in 4.0 mi South 19.6 mph 26.5 mph N/A   Overcast
10:35 PM 15.8 °F -0.2 °F 12.2 °F 86% 29.63 in 4.0 mi SSE 17.3 mph 21.9 mph N/A   Overcast
10:53 PM 15.8 °F 0.3 °F 12.2 °F 86% 29.63 in 5.0 mi SSE 16.1 mph 24.2 mph N/A   Overcast
11:35 PM 15.8 °F -0.2 °F 12.2 °F 86% 29.63 in 7.0 mi SSE 17.3 mph 21.9 mph N/A   Overcast
11:53 PM 17.6 °F 2.7 °F 12.2 °F 79% 29.62 in 7.0 mi SSE 16.1 mph 23.0 mph N/A   Overcast